Year,Month,Day,Hour,Minute,Value (Times are PST for windspeed in km/hr)
2020,10,24,00,00,13.10
2020,10,24,00,01,19.80
2020,10,24,00,02,14.30
2020,10,24,00,03,14.50
2020,10,24,00,04,15.50
2020,10,24,00,05,7.90
2020,10,24,00,06,11.30
2020,10,24,00,07,12.60
2020,10,24,00,08,11.60
2020,10,24,00,09,15.80
2020,10,24,00,10,7.20
2020,10,24,00,11,7.60
2020,10,24,00,12,12.40
2020,10,24,00,13,13.70
2020,10,24,00,14,14.80
2020,10,24,00,15,17.30
2020,10,24,00,16,13.10
2020,10,24,00,17,21.20
2020,10,24,00,18,14.40
2020,10,24,00,19,18.30
2020,10,24,00,20,17.50
2020,10,24,00,21,13.20
2020,10,24,00,22,21.90
2020,10,24,00,23,16.10
2020,10,24,00,24,15.90
2020,10,24,00,25,14.70
2020,10,24,00,26,17.20
2020,10,24,00,27,15.70
2020,10,24,00,28,24.40
2020,10,24,00,29,15.40
2020,10,24,00,30,14.50
2020,10,24,00,31,24.20
2020,10,24,00,32,15.80
2020,10,24,00,33,20.60
2020,10,24,00,34,17.10
2020,10,24,00,35,17.80
2020,10,24,00,36,22.30
2020,10,24,00,37,18.50
2020,10,24,00,38,19.20
2020,10,24,00,39,17.40
2020,10,24,00,40,19.00
2020,10,24,00,41,20.90
2020,10,24,00,42,20.30
2020,10,24,00,43,22.60
2020,10,24,00,44,27.00
2020,10,24,00,45,24.80
2020,10,24,00,46,23.20
2020,10,24,00,47,22.60
2020,10,24,00,48,29.00
2020,10,24,00,49,25.10
2020,10,24,00,50,25.70
2020,10,24,00,51,26.50
2020,10,24,00,52,24.70
2020,10,24,00,53,25.40
2020,10,24,00,54,24.10
2020,10,24,00,55,26.60
2020,10,24,00,56,30.10
2020,10,24,00,57,27.60
2020,10,24,00,58,26.10
2020,10,24,00,59,27.20
2020,10,24,01,00,26.50
2020,10,24,01,01,31.60
2020,10,24,01,02,24.40
2020,10,24,01,03,30.30
2020,10,24,01,04,19.50
2020,10,24,01,05,25.60
2020,10,24,01,06,20.70
2020,10,24,01,07,19.30
2020,10,24,01,08,19.30
2020,10,24,01,09,19.30
2020,10,24,01,10,19.30
2020,10,24,01,11,19.30
2020,10,24,01,12,19.30
2020,10,24,01,13,19.30
2020,10,24,01,14,19.30
2020,10,24,01,15,19.30
2020,10,24,01,16,19.30
2020,10,24,08,04,29.80
2020,10,24,08,05,24.90
2020,10,24,08,06,27.30
2020,10,24,08,07,21.40
2020,10,24,08,08,18.70
2020,10,24,08,09,27.40
2020,10,24,08,10,27.40
2020,10,24,08,11,27.40
2020,10,24,08,12,27.40
2020,10,24,08,13,27.40
2020,10,24,08,14,24.50
2020,10,24,08,15,23.00
2020,10,24,08,16,30.80
2020,10,24,08,17,23.90
2020,10,24,08,18,30.40
2020,10,24,08,19,23.50
2020,10,24,08,20,24.10
2020,10,24,08,21,17.80
2020,10,24,08,22,10.20
2020,10,24,08,23,13.10
2020,10,24,08,24,7.50
2020,10,24,08,25,6.20
2020,10,24,08,26,12.60
2020,10,24,08,27,10.60
2020,10,24,08,28,21.70
2020,10,24,08,29,25.10
2020,10,24,08,30,22.90
2020,10,24,08,31,11.00
2020,10,24,08,32,11.90
2020,10,24,08,33,16.20
2020,10,24,08,34,20.60
2020,10,24,08,35,29.10
2020,10,24,08,36,27.60
2020,10,24,08,37,32.00
2020,10,24,08,38,29.50
2020,10,24,08,39,26.30
2020,10,24,08,40,18.10
2020,10,24,08,41,27.80
2020,10,24,08,42,18.90
2020,10,24,08,43,28.70
2020,10,24,08,44,44.20
2020,10,24,08,45,32.00
2020,10,24,08,46,33.30
2020,10,24,08,47,31.00
2020,10,24,08,48,22.90
2020,10,24,08,49,25.50
2020,10,24,08,50,39.50
2020,10,24,08,51,42.30
2020,10,24,08,52,28.10
2020,10,24,08,53,24.60
2020,10,24,08,54,25.90
2020,10,24,08,55,36.00
2020,10,24,08,56,32.20
2020,10,24,08,57,28.40
2020,10,24,08,58,28.00
2020,10,24,08,59,25.20
2020,10,24,09,00,25.80
2020,10,24,09,01,23.70
2020,10,24,09,02,27.10
2020,10,24,09,03,20.20
2020,10,24,09,04,25.80
2020,10,24,09,05,22.20
2020,10,24,09,06,23.80
2020,10,24,09,07,37.40
2020,10,24,09,08,30.00
2020,10,24,09,09,27.70
2020,10,24,09,10,44.70
2020,10,24,09,11,44.80
2020,10,24,09,12,36.80
2020,10,24,09,13,28.00
2020,10,24,09,14,40.90
2020,10,24,09,15,27.40
2020,10,24,09,16,27.10
2020,10,24,09,17,26.90
2020,10,24,09,18,34.30
2020,10,24,09,19,29.70
2020,10,24,09,20,32.70
2020,10,24,09,21,37.70
2020,10,24,09,22,30.10
2020,10,24,09,23,30.50
2020,10,24,09,24,29.40
2020,10,24,09,25,39.00
2020,10,24,09,26,44.70
2020,10,24,09,27,42.30
2020,10,24,09,28,52.60
2020,10,24,09,29,34.00
2020,10,24,09,30,38.30
2020,10,24,09,31,37.20
2020,10,24,09,32,40.30
2020,10,24,09,33,38.90
2020,10,24,09,34,44.10
2020,10,24,09,35,40.50
2020,10,24,09,36,36.00
2020,10,24,09,37,30.60
2020,10,24,09,38,28.10
2020,10,24,09,39,32.00
2020,10,24,09,40,25.80
2020,10,24,09,41,21.60
2020,10,24,09,42,21.90
2020,10,24,09,43,26.60
2020,10,24,09,44,26.60
2020,10,24,09,45,43.60
2020,10,24,09,46,34.30
2020,10,24,09,47,35.00
2020,10,24,09,48,34.00
2020,10,24,09,49,32.60
2020,10,24,09,50,28.50
2020,10,24,09,51,28.40
2020,10,24,09,52,39.20
2020,10,24,09,53,42.30
2020,10,24,09,54,32.80
2020,10,24,09,55,27.80
2020,10,24,09,56,30.10
2020,10,24,09,57,37.60
2020,10,24,09,58,41.70
2020,10,24,09,59,45.10
2020,10,24,10,00,47.30
2020,10,24,10,01,44.10
2020,10,24,10,02,31.20
2020,10,24,10,03,28.70
2020,10,24,10,04,38.60
2020,10,24,10,05,36.50
2020,10,24,10,06,45.10
2020,10,24,10,07,47.60
2020,10,24,10,08,48.70
2020,10,24,10,09,53.80
2020,10,24,10,10,40.50
2020,10,24,10,11,44.50
2020,10,24,10,12,40.70
2020,10,24,10,13,42.20
2020,10,24,10,14,31.10
2020,10,24,10,15,38.20
2020,10,24,10,16,30.30
2020,10,24,10,17,32.20
2020,10,24,10,18,35.40
2020,10,24,10,19,44.10
2020,10,24,10,20,39.60
2020,10,24,10,21,23.30
2020,10,24,10,22,22.00
2020,10,24,10,23,34.10
2020,10,24,10,24,42.10
2020,10,24,10,25,47.40
2020,10,24,10,26,42.90
2020,10,24,10,27,39.30
2020,10,24,10,28,35.00
2020,10,24,10,29,40.80
2020,10,24,10,30,43.60
2020,10,24,10,31,39.60
2020,10,24,10,32,39.10
2020,10,24,10,33,31.90
2020,10,24,10,34,26.80
2020,10,24,10,35,27.80
2020,10,24,10,36,27.40
2020,10,24,10,37,25.00
2020,10,24,10,38,24.50
2020,10,24,10,39,23.90
2020,10,24,10,40,24.60
2020,10,24,10,41,24.60
2020,10,24,10,42,21.90
2020,10,24,10,43,25.10
2020,10,24,10,44,32.20
2020,10,24,10,45,34.40
2020,10,24,10,46,30.00
2020,10,24,10,47,21.50
2020,10,24,10,48,23.30
2020,10,24,10,49,20.40
2020,10,24,10,50,15.70
2020,10,24,10,51,22.90
2020,10,24,10,52,23.50
2020,10,24,10,53,22.00
2020,10,24,10,54,20.10
2020,10,24,10,55,27.10
2020,10,24,10,56,27.10
2020,10,24,10,57,24.80
2020,10,24,10,58,31.00
2020,10,24,10,59,27.90
2020,10,24,11,00,20.50
2020,10,24,11,01,23.20
2020,10,24,11,02,24.20
2020,10,24,11,03,19.10
2020,10,24,11,04,27.00
2020,10,24,11,05,40.60
2020,10,24,11,06,42.60
2020,10,24,11,07,33.10
2020,10,24,11,08,30.30
2020,10,24,11,09,31.30
2020,10,24,11,10,43.80
2020,10,24,11,11,31.60
2020,10,24,11,12,24.30
2020,10,24,11,13,31.40
2020,10,24,11,14,42.60
2020,10,24,11,15,28.70
2020,10,24,11,16,35.50
2020,10,24,11,17,35.90
2020,10,24,11,18,34.00
2020,10,24,11,19,37.90
2020,10,24,11,20,30.80
2020,10,24,11,21,34.70
2020,10,24,11,22,28.50
2020,10,24,11,23,24.70
2020,10,24,11,24,23.90
2020,10,24,11,25,20.00
2020,10,24,11,26,21.70
2020,10,24,11,27,13.30
2020,10,24,11,28,29.00
2020,10,24,11,29,29.00
2020,10,24,11,30,29.10
2020,10,24,11,31,37.80
2020,10,24,11,32,26.00
2020,10,24,11,33,19.90
2020,10,24,11,34,30.60
2020,10,24,11,35,37.70
2020,10,24,11,36,39.60
2020,10,24,11,37,39.00
2020,10,24,11,38,35.90
2020,10,24,11,39,35.20
2020,10,24,11,40,28.80
2020,10,24,11,41,26.00
2020,10,24,11,42,24.10
2020,10,24,11,43,30.70
2020,10,24,11,44,29.50
2020,10,24,11,45,33.10
2020,10,24,11,46,32.30
2020,10,24,11,47,30.80
2020,10,24,11,48,42.10
2020,10,24,11,49,35.70
2020,10,24,11,50,29.10
2020,10,24,11,51,25.90
2020,10,24,11,52,28.80
2020,10,24,11,53,28.20
2020,10,24,11,54,32.40
2020,10,24,11,55,31.70
2020,10,24,11,56,36.10
2020,10,24,11,57,32.20
2020,10,24,11,58,27.40
2020,10,24,11,59,37.20
2020,10,24,12,00,36.60
2020,10,24,12,01,35.70
2020,10,24,12,02,21.00
2020,10,24,12,03,31.20
2020,10,24,12,04,36.20
2020,10,24,12,05,41.70
2020,10,24,12,06,43.50
2020,10,24,12,07,39.70
2020,10,24,12,08,38.50
2020,10,24,12,09,29.50
2020,10,24,12,10,39.80
2020,10,24,12,11,37.20
2020,10,24,12,12,33.10
2020,10,24,12,13,36.20
2020,10,24,12,14,41.90
2020,10,24,12,15,35.60
2020,10,24,12,16,36.10
2020,10,24,12,17,32.70
2020,10,24,12,18,40.20
2020,10,24,12,19,34.80
2020,10,24,12,20,29.40
2020,10,24,12,21,29.70
2020,10,24,12,22,32.90
2020,10,24,12,23,37.50
2020,10,24,12,24,30.70
2020,10,24,12,25,30.30
2020,10,24,12,26,19.00
2020,10,24,12,27,19.70
2020,10,24,12,28,22.00
2020,10,24,12,29,30.30
2020,10,24,12,30,20.00
2020,10,24,12,31,37.30
2020,10,24,12,32,33.70
2020,10,24,12,33,33.10
2020,10,24,12,34,35.50
2020,10,24,12,35,47.70
2020,10,24,12,36,35.50
2020,10,24,12,37,26.40
2020,10,24,12,38,17.80
2020,10,24,12,39,32.30
2020,10,24,12,40,35.70
2020,10,24,12,41,36.30
2020,10,24,12,42,41.80
2020,10,24,12,43,31.20
2020,10,24,12,44,24.40
2020,10,24,12,45,36.80
2020,10,24,12,46,30.40
2020,10,24,12,47,27.70
2020,10,24,12,48,33.10
2020,10,24,12,49,35.60
2020,10,24,12,50,35.90
2020,10,24,12,51,34.60
2020,10,24,12,52,28.70
2020,10,24,12,53,33.20
2020,10,24,12,54,38.80
2020,10,24,12,55,30.50
2020,10,24,12,56,36.30
2020,10,24,12,57,34.00
2020,10,24,12,58,34.40
2020,10,24,12,59,24.30
2020,10,24,13,00,36.50
2020,10,24,13,01,39.90
2020,10,24,13,02,39.30
2020,10,24,13,03,20.50
2020,10,24,13,04,35.10
2020,10,24,13,05,33.70
2020,10,24,13,06,38.40
2020,10,24,13,07,28.30
2020,10,24,13,08,28.20
2020,10,24,13,09,30.70
2020,10,24,13,10,37.00
2020,10,24,13,11,27.30
2020,10,24,13,12,27.90
2020,10,24,13,13,36.90
2020,10,24,13,14,24.90
2020,10,24,13,15,27.30
2020,10,24,13,16,31.80
2020,10,24,13,17,30.60
2020,10,24,13,18,29.20
2020,10,24,13,19,35.00
2020,10,24,13,20,28.10
2020,10,24,13,21,27.50
2020,10,24,13,22,21.90
2020,10,24,13,23,25.00
2020,10,24,13,24,33.10
2020,10,24,13,25,31.40
2020,10,24,13,26,22.20
2020,10,24,13,27,19.80
2020,10,24,13,28,28.00
2020,10,24,13,29,27.10
2020,10,24,13,30,38.90
2020,10,24,13,31,35.80
2020,10,24,13,32,37.10
2020,10,24,13,33,38.30
2020,10,24,13,34,38.90
2020,10,24,13,35,31.60
2020,10,24,13,36,19.20
2020,10,24,13,37,23.60
2020,10,24,13,38,23.80
2020,10,24,13,39,28.90
2020,10,24,13,40,32.20
2020,10,24,13,41,27.40
2020,10,24,13,42,28.10
2020,10,24,13,43,39.50
2020,10,24,13,44,36.40
2020,10,24,13,45,32.00
2020,10,24,13,46,24.00
2020,10,24,13,47,15.50
2020,10,24,13,48,19.20
2020,10,24,13,49,25.40
2020,10,24,13,50,35.20
2020,10,24,13,51,34.80
2020,10,24,13,52,35.90
2020,10,24,13,53,25.80
2020,10,24,13,54,27.80
2020,10,24,13,55,24.30
2020,10,24,13,56,20.80
2020,10,24,13,57,37.40
2020,10,24,13,58,27.40
2020,10,24,13,59,35.40
2020,10,24,14,00,31.20
2020,10,24,14,01,23.90
2020,10,24,14,02,26.10
2020,10,24,14,03,25.00
2020,10,24,14,04,31.30
2020,10,24,14,05,32.80
2020,10,24,14,06,26.20
2020,10,24,14,07,27.00
2020,10,24,14,08,14.00
2020,10,24,14,09,26.30
2020,10,24,14,10,18.90
2020,10,24,14,11,20.80
2020,10,24,14,12,15.80
2020,10,24,14,13,20.40
2020,10,24,14,14,22.80
2020,10,24,14,15,26.50
2020,10,24,14,16,23.40
2020,10,24,14,17,30.00
2020,10,24,14,18,24.00
2020,10,24,14,19,26.10
2020,10,24,14,20,26.00
2020,10,24,14,21,25.60
2020,10,24,14,22,30.80
2020,10,24,14,23,31.90
2020,10,24,14,24,18.00
2020,10,24,14,25,20.80
2020,10,24,14,26,16.50
2020,10,24,14,27,22.70
2020,10,24,14,28,23.30
2020,10,24,14,29,24.60
2020,10,24,14,30,32.60
2020,10,24,14,31,45.50
2020,10,24,14,32,33.80
2020,10,24,14,33,33.30
2020,10,24,14,34,37.50
2020,10,24,14,35,31.40
2020,10,24,14,36,22.10
2020,10,24,14,37,23.20
2020,10,24,14,38,19.90
2020,10,24,14,39,27.20
2020,10,24,14,40,27.30
2020,10,24,14,41,25.70
2020,10,24,14,42,27.90
2020,10,24,14,43,16.90
2020,10,24,14,44,15.30
2020,10,24,14,45,28.00
2020,10,24,14,46,32.80
2020,10,24,14,47,31.40
2020,10,24,14,48,24.80
2020,10,24,14,49,27.60
2020,10,24,14,50,35.80
2020,10,24,14,51,35.20
2020,10,24,14,52,27.60
2020,10,24,14,53,16.10
2020,10,24,14,54,18.10
2020,10,24,14,55,25.20
2020,10,24,14,56,39.20
2020,10,24,14,57,31.00
2020,10,24,14,58,16.40
2020,10,24,14,59,29.10
2020,10,24,15,00,27.50
2020,10,24,15,01,28.70
2020,10,24,15,02,24.00
2020,10,24,15,03,16.90
2020,10,24,15,04,28.30
2020,10,24,15,05,23.50
2020,10,24,15,06,27.20
2020,10,24,15,07,33.20
2020,10,24,15,08,33.10
2020,10,24,15,09,42.60
2020,10,24,15,10,27.10
2020,10,24,15,11,34.90
2020,10,24,15,12,28.30
2020,10,24,15,13,29.20
2020,10,24,15,14,21.20
2020,10,24,15,15,34.90
2020,10,24,15,16,25.70
2020,10,24,15,17,36.90
2020,10,24,15,18,28.70
2020,10,24,15,19,21.80
2020,10,24,15,20,33.00
2020,10,24,15,21,24.90
2020,10,24,15,22,17.80
2020,10,24,15,23,19.10
2020,10,24,15,24,23.60
2020,10,24,15,25,24.50
2020,10,24,15,26,36.60
2020,10,24,15,27,33.90
2020,10,24,15,28,26.60
2020,10,24,15,29,22.20
2020,10,24,15,30,21.80
2020,10,24,15,31,29.60
2020,10,24,15,32,30.40
2020,10,24,15,33,29.40
2020,10,24,15,34,39.30
2020,10,24,15,35,35.80
2020,10,24,15,36,39.50
2020,10,24,15,37,28.20
2020,10,24,15,38,16.40
2020,10,24,15,39,22.50
2020,10,24,15,40,29.40
2020,10,24,15,41,30.30
2020,10,24,15,42,35.30
2020,10,24,15,43,20.80
2020,10,24,15,44,22.80
2020,10,24,15,45,24.50
2020,10,24,15,46,16.30
2020,10,24,15,47,23.40
2020,10,24,15,48,30.90
2020,10,24,15,49,33.90
2020,10,24,15,50,32.30
2020,10,24,15,51,28.30
2020,10,24,15,52,30.40
2020,10,24,15,53,24.70
2020,10,24,15,54,10.30
2020,10,24,15,55,22.40
2020,10,24,15,56,28.50
2020,10,24,15,57,28.10
2020,10,24,15,58,19.20
2020,10,24,15,59,30.00
2020,10,24,16,00,25.10
2020,10,24,16,01,19.90
2020,10,24,16,02,29.40
2020,10,24,16,03,39.50
2020,10,24,16,04,31.20
2020,10,24,16,05,28.10
2020,10,24,16,06,29.10
2020,10,24,16,07,28.20
2020,10,24,16,08,15.40
2020,10,24,16,09,23.30
2020,10,24,16,10,34.20
2020,10,24,16,11,38.70
2020,10,24,16,12,36.80
2020,10,24,16,13,33.20
2020,10,24,16,14,28.00
2020,10,24,16,15,20.30
2020,10,24,16,16,21.10
2020,10,24,16,17,24.30
2020,10,24,16,18,21.20
2020,10,24,16,19,25.40
2020,10,24,16,20,28.20
2020,10,24,16,21,30.30
2020,10,24,16,22,24.80
2020,10,24,16,23,32.90
2020,10,24,16,24,31.60
2020,10,24,16,25,34.60
2020,10,24,16,26,29.70
2020,10,24,16,27,28.00
2020,10,24,16,28,17.20
2020,10,24,16,29,12.30
2020,10,24,16,30,22.00
2020,10,24,16,31,33.40
2020,10,24,16,32,33.00
2020,10,24,16,33,27.10
2020,10,24,16,34,40.20
2020,10,24,16,35,34.50
2020,10,24,16,36,41.10
2020,10,24,16,37,27.70
2020,10,24,16,38,29.70
2020,10,24,16,39,33.30
2020,10,24,16,40,40.00
2020,10,24,16,41,40.00
2020,10,24,16,42,24.50
2020,10,24,16,43,24.10
2020,10,24,16,44,24.00
2020,10,24,16,45,37.50
2020,10,24,16,46,22.20
2020,10,24,16,47,32.00
2020,10,24,16,48,34.10
2020,10,24,16,49,33.50
2020,10,24,16,50,34.40
2020,10,24,16,51,21.20
2020,10,24,16,52,25.80
2020,10,24,16,53,27.50
2020,10,24,16,54,23.40
2020,10,24,16,55,22.20
2020,10,24,16,56,40.40
2020,10,24,16,57,23.60
2020,10,24,16,58,18.00
2020,10,24,16,59,33.60
2020,10,24,17,00,30.70
2020,10,24,17,01,17.70
2020,10,24,17,02,20.30
2020,10,24,17,03,32.00
2020,10,24,17,04,35.80
2020,10,24,17,05,36.70
2020,10,24,17,06,36.40
2020,10,24,17,07,30.20
2020,10,24,17,08,21.50
2020,10,24,17,09,35.10
2020,10,24,17,10,14.10
2020,10,24,17,11,24.30
2020,10,24,17,12,29.30
2020,10,24,17,13,30.60
2020,10,24,17,14,38.00
2020,10,24,17,15,26.10
2020,10,24,17,16,32.60
2020,10,24,17,17,29.70
2020,10,24,17,18,31.00
2020,10,24,17,19,37.60
2020,10,24,17,20,29.00
2020,10,24,17,21,31.50
2020,10,24,17,22,34.40
2020,10,24,17,23,21.40
2020,10,24,17,24,18.80
2020,10,24,17,25,8.00
2020,10,24,17,26,8.90
2020,10,24,17,27,12.10
2020,10,24,17,28,8.10
2020,10,24,17,29,2.90
2020,10,24,17,30,7.60
2020,10,24,17,31,7.10
2020,10,24,17,32,11.50
2020,10,24,17,33,9.00
2020,10,24,17,34,7.20
2020,10,24,17,35,6.90
2020,10,24,17,36,7.60
2020,10,24,17,37,6.60
2020,10,24,17,38,9.90
2020,10,24,17,39,6.90
2020,10,24,17,40,4.40
2020,10,24,17,41,7.50
2020,10,24,17,42,8.40
2020,10,24,17,43,9.50
2020,10,24,17,44,10.80
2020,10,24,17,45,12.50
2020,10,24,17,46,6.40
2020,10,24,17,47,10.00
2020,10,24,17,48,7.10
2020,10,24,17,49,5.60
2020,10,24,17,50,1.40
2020,10,24,17,51,2.00
2020,10,24,17,52,6.40
2020,10,24,17,53,9.40
2020,10,24,17,54,7.60
2020,10,24,17,55,6.40
2020,10,24,17,56,6.40
2020,10,24,17,57,6.40
2020,10,24,17,58,6.40
2020,10,24,17,59,6.40
2020,10,24,18,00,6.40
2020,10,24,18,01,6.40
2020,10,24,18,02,6.40
2020,10,24,18,03,6.40
2020,10,24,18,04,6.40
